• In Netherlands
  • List of Countries
  • For 7 days
  • Water Temperature
  • Satellite Maps
  • Weather Map
  • Weather Widgets
  • user-avatar
    Login

    Hourly Weather Mayrhofen

    Today, 26 May, Saturday

    Time Temperature Precipitation Wind Pressure Humidity
    00:00 +7°C° 0 mm 1 mps 619 mmHg 93%
    01:00 +7°C° 0 mm 1 mps 620 mmHg 90%
    02:00 +7°C° 0 mm 1 mps 619 mmHg 90%
    03:00 +7°C° 0 mm 1 mps 619 mmHg 90%
    04:00 +7°C° 0 mm 1 mps 619 mmHg 90%
    05:00 +9°C° 0 mm 1 mps 620 mmHg 85%
    06:00 +11°C° 0 mm 1 mps 621 mmHg 80%
    07:00 +12°C° 0 mm 1 mps 622 mmHg 76%
    08:00 +14°C° 0 mm 1 mps 623 mmHg 65%
    09:00 +16°C° 0 mm 1 mps 624 mmHg 55%
    10:00 +17°C° 0 mm 0 mps 624 mmHg 45%
    11:00 +20°C° 0 mm 1 mps 624 mmHg 43%
    12:00 +21°C° 0 mm 1 mps 625 mmHg 41%
    13:00 +21°C° 0 mm 1 mps 625 mmHg 40%
    14:00 +21°C° 0.2 mm 1 mps 624 mmHg 42%
    15:00 +20°C° 0.2 mm 1 mps 624 mmHg 44%
    16:00 +20°C° 0.2 mm 1 mps 624 mmHg 47%
    17:00 +18°C° 0.3 mm 1 mps 623 mmHg 57%
    18:00 +16°C° 0.3 mm 1 mps 623 mmHg 67%
    19:00 +14°C° 0.3 mm 0 mps 622 mmHg 78%
    20:00 +13°C° 0.4 mm 1 mps 622 mmHg 82%
    21:00 +11°C° 0.4 mm 1 mps 622 mmHg 85%
    22:00 +10°C° 0.4 mm 1 mps 621 mmHg 89%
    23:00 +10°C° 0.1 mm 1 mps 621 mmHg 88%

    Tomorrow, 27 May, Sunday

    Time Temperature Precipitation Wind Pressure Humidity
    00:00 +10°C° 0.1 mm 1 mps 621 mmHg 88%
    01:00 +10°C° 0.1 mm 1 mps 621 mmHg 87%
    02:00 +9°C° 0.2 mm 1 mps 621 mmHg 87%
    03:00 +9°C° 0.2 mm 1 mps 621 mmHg 87%
    04:00 +9°C° 0.2 mm 1 mps 620 mmHg 87%
    05:00 +10°C° 0.1 mm 1 mps 621 mmHg 83%
    06:00 +12°C° 0.1 mm 1 mps 622 mmHg 80%
    07:00 +13°C° 0.1 mm 1 mps 622 mmHg 76%
    08:00 +15°C° 0.2 mm 1 mps 623 mmHg 69%
    09:00 +15°C° 0.2 mm 0 mps 623 mmHg 62%
    10:00 +17°C° 0.2 mm 0 mps 624 mmHg 55%
    11:00 +18°C° 0.9 mm 0 mps 624 mmHg 53%
    12:00 +20°C° 0.9 mm 1 mps 624 mmHg 51%
    13:00 +21°C° 0.9 mm 1 mps 624 mmHg 49%
    14:00 +20°C° 1.1 mm 1 mps 624 mmHg 52%
    15:00 +20°C° 1.1 mm 1 mps 623 mmHg 54%
    16:00 +19°C° 1.1 mm 1 mps 623 mmHg 56%
    17:00 +18°C° 0.9 mm 1 mps 622 mmHg 65%
    18:00 +16°C° 0.9 mm 1 mps 622 mmHg 74%
    19:00 +14°C° 0.9 mm 1 mps 621 mmHg 82%
    20:00 +13°C° 0.5 mm 1 mps 621 mmHg 82%
    21:00 +12°C° 0.5 mm 1 mps 621 mmHg 83%
    22:00 +12°C° 0.5 mm 1 mps 621 mmHg 83%
    23:00 +11°C° 0.1 mm 1 mps 621 mmHg 83%

    Day after tomorrow, 28 May, Monday

    Time Temperature Precipitation Wind Pressure Humidity
    00:00 +11°C° 0.1 mm 1 mps 621 mmHg 83%
    01:00 +10°C° 0.1 mm 1 mps 620 mmHg 84%
    02:00 +10°C° 0 mm 1 mps 620 mmHg 83%
    03:00 +9°C° 0 mm 1 mps 620 mmHg 83%
    04:00 +9°C° 0 mm 1 mps 620 mmHg 83%
    05:00 +11°C° 0 mm 1 mps 620 mmHg 78%
    06:00 +12°C° 0 mm 1 mps 621 mmHg 74%
    07:00 +14°C° 0 mm 1 mps 622 mmHg 69%
    08:00 +16°C° 0 mm 1 mps 622 mmHg 60%
    09:00 +19°C° 0 mm 1 mps 623 mmHg 51%
    10:00 +20°C° 0 mm 2 mps 624 mmHg 42%
    11:00 +20°C° 0.1 mm 2 mps 624 mmHg 41%
    12:00 +21°C° 0.1 mm 2 mps 624 mmHg 40%
    13:00 +23°C° 0.1 mm 2 mps 624 mmHg 39%
    14:00 +21°C° 0.3 mm 2 mps 623 mmHg 43%
    15:00 +20°C° 0.3 mm 2 mps 623 mmHg 47%
    16:00 +20°C° 0.3 mm 2 mps 622 mmHg 51%
    17:00 +18°C° 1.1 mm 2 mps 622 mmHg 60%
    18:00 +17°C° 1.1 mm 2 mps 621 mmHg 69%
    19:00 +15°C° 1.1 mm 2 mps 621 mmHg 78%
    20:00 +14°C° 0.5 mm 2 mps 620 mmHg 82%
    21:00 +13°C° 0.5 mm 2 mps 620 mmHg 86%
    22:00 +12°C° 0.5 mm 2 mps 620 mmHg 90%
    23:00 +10°C° 0 mm 2 mps 620 mmHg 90%

    29 May, Tuesday

    Time Temperature Precipitation Wind Pressure Humidity
    00:00 +9°C° 0 mm 2 mps 619 mmHg 91%
    01:00 +9°C° 0 mm 2 mps 619 mmHg 91%
    02:00 +8°C° 0 mm 2 mps 619 mmHg 91%
    03:00 +8°C° 0 mm 2 mps 619 mmHg 90%
    04:00 +8°C° 0 mm 2 mps 618 mmHg 90%
    05:00 +9°C° 0 mm 2 mps 619 mmHg 85%
    06:00 +12°C° 0 mm 2 mps 619 mmHg 79%
    07:00 +13°C° 0 mm 2 mps 620 mmHg 74%
    08:00 +15°C° 0 mm 2 mps 621 mmHg 64%
    09:00 +18°C° 0 mm 2 mps 621 mmHg 55%
    10:00 +20°C° 0 mm 2 mps 622 mmHg 45%
    11:00 +20°C° 0.1 mm 2 mps 622 mmHg 44%
    12:00 +21°C° 0.1 mm 2 mps 621 mmHg 44%
    13:00 +21°C° 0.1 mm 2 mps 621 mmHg 43%
    14:00 +20°C° 0.6 mm 2 mps 621 mmHg 48%
    15:00 +20°C° 0.6 mm 3 mps 620 mmHg 52%
    16:00 +19°C° 0.6 mm 3 mps 620 mmHg 57%
    17:00 +18°C° 1.2 mm 2 mps 619 mmHg 65%
    18:00 +16°C° 1.2 mm 2 mps 619 mmHg 73%
    19:00 +15°C° 1.2 mm 2 mps 618 mmHg 82%
    20:00 +14°C° 0.5 mm 2 mps 618 mmHg 86%
    21:00 +12°C° 0.5 mm 2 mps 618 mmHg 89%
    22:00 +10°C° 0.5 mm 2 mps 617 mmHg 93%
    23:00 +9°C° 0.2 mm 2 mps 617 mmHg 93%

    30 May, Wednesday

    Time Temperature Precipitation Wind Pressure Humidity
    00:00 +9°C° 0.2 mm 2 mps 617 mmHg 94%
    01:00 +9°C° 0.2 mm 2 mps 617 mmHg 94%
    02:00 +8°C° 0 mm 2 mps 617 mmHg 93%
    03:00 +8°C° 0 mm 2 mps 616 mmHg 93%
    04:00 +8°C° 0 mm 2 mps 616 mmHg 92%
    05:00 +10°C° 0 mm 1 mps 617 mmHg 87%
    06:00 +12°C° 0 mm 1 mps 617 mmHg 82%
    07:00 +13°C° 0 mm 1 mps 618 mmHg 76%
    08:00 +15°C° 0 mm 1 mps 618 mmHg 68%
    09:00 +18°C° 0 mm 1 mps 619 mmHg 60%
    10:00 +20°C° 0 mm 1 mps 620 mmHg 52%
    11:00 +20°C° 0.9 mm 1 mps 619 mmHg 54%
    12:00 +19°C° 0.9 mm 2 mps 619 mmHg 55%
    13:00 +19°C° 0.9 mm 2 mps 619 mmHg 57%
    14:00 +19°C° 2 mm 2 mps 619 mmHg 62%
    15:00 +18°C° 2 mm 2 mps 618 mmHg 66%
    16:00 +17°C° 2 mm 2 mps 618 mmHg 70%
    17:00 +16°C° 1.8 mm 2 mps 618 mmHg 76%
    18:00 +15°C° 1.8 mm 1 mps 617 mmHg 81%
    19:00 +14°C° 1.8 mm 1 mps 617 mmHg 87%
    20:00 +13°C° 0.7 mm 1 mps 617 mmHg 89%
    21:00 +12°C° 0.7 mm 1 mps 617 mmHg 91%
    22:00 +11°C° 0.7 mm 1 mps 617 mmHg 93%
    23:00 +11°C° 0.4 mm 1 mps 617 mmHg 93%

    31 May, Thursday

    Time Temperature Precipitation Wind Pressure Humidity
    00:00 +10°C° 0.4 mm 1 mps 616 mmHg 93%
    01:00 +10°C° 0.4 mm 1 mps 616 mmHg 94%
    02:00 +9°C° 0.4 mm 1 mps 616 mmHg 94%
    03:00 +9°C° 0.4 mm 1 mps 616 mmHg 94%
    04:00 +8°C° 0.4 mm 1 mps 616 mmHg 94%
    05:00 +10°C° 0.3 mm 1 mps 616 mmHg 89%
    06:00 +12°C° 0.3 mm 1 mps 617 mmHg 85%
    07:00 +12°C° 0.3 mm 0 mps 618 mmHg 80%
    08:00 +14°C° 0.5 mm 0 mps 618 mmHg 74%
    09:00 +16°C° 0.5 mm 1 mps 619 mmHg 68%
    10:00 +19°C° 0.5 mm 1 mps 619 mmHg 61%
    11:00 +19°C° 1 mm 1 mps 619 mmHg 61%
    12:00 +20°C° 1 mm 1 mps 619 mmHg 60%
    13:00 +20°C° 1 mm 1 mps 619 mmHg 59%
    14:00 +19°C° 1.2 mm 1 mps 619 mmHg 62%
    15:00 +19°C° 1.2 mm 1 mps 618 mmHg 65%
    16:00 +18°C° 1.2 mm 1 mps 618 mmHg 68%
    17:00 +16°C° 0.9 mm 1 mps 618 mmHg 74%
    18:00 +15°C° 0.9 mm 1 mps 618 mmHg 80%
    19:00 +13°C° 0.9 mm 0 mps 617 mmHg 86%
    20:00 +13°C° 0.5 mm 1 mps 617 mmHg 89%
    21:00 +12°C° 0.5 mm 1 mps 617 mmHg 91%
    22:00 +11°C° 0.5 mm 1 mps 617 mmHg 94%
    23:00 +10°C° 0.9 mm 1 mps 616 mmHg 94%
    Show more